Location: Ardick
(31.4613°N, 81.4334°W)
Time: 16:40:21
(UTC+00:00)

X-37B - Pass Details

Date: 18 September 2021
Orbit: 385 x 389 km, 45.0° (Epoch: 13 October)

Event Time Altitude Azimuth Distance (km) Brightness Sun altitude
Exits shadow 10:09:10 13° 202° (SSW) 1,220 2.8 -14.1°
Maximum altitude 10:11:34 34° 139° (SE) 657 2.0 -13.6°
Drops below altitude 10° 10:14:29 10° 72° (ENE) 1,410 4.9 -13.0°
Sets 10:16:40 0° 63° (ENE) 2,267 6.1 -12.5°
